Time,TemperatureF,DewpointF,PressureIn,WindDirection,WindDirectionDegrees,WindSpeedMPH,WindSpeedGustMPH,Humidity,HourlyPrecipIn,Conditions,Clouds,dailyrainin,SoftwareType,DateUTC
2013-08-17 00:01:00,63.5,61.8,30.09,WSW,254,0.0,0.0,94,0.00,,OVC037,0.55,VWS V14.01,2013-08-17 04:01:00,
2013-08-17 00:06:00,63.4,61.3,30.09,WSW,254,0.0,0.0,93,0.00,,OVC037,0.00,VWS V14.01,2013-08-17 04:06:00,
2013-08-17 00:11:00,63.4,61.7,30.09,WSW,254,0.0,0.0,94,0.00,,OVC037,0.00,VWS V14.01,2013-08-17 04:11:00,
2013-08-17 00:16:00,63.2,61.2,30.08,WSW,254,0.0,0.0,93,0.00,,OVC037,0.00,VWS V14.01,2013-08-17 04:16:00,
2013-08-17 00:21:00,63.2,61.2,30.08,WSW,254,0.0,0.0,93,0.00,,OVC037,0.00,VWS V14.01,2013-08-17 04:21:00,
2013-08-17 00:26:00,63.1,60.7,30.08,WSW,254,0.0,0.0,92,0.00,,OVC037,0.00,VWS V14.01,2013-08-17 04:26:00,
2013-08-17 00:31:00,62.9,60.5,30.08,WSW,254,0.0,0.0,92,0.00,,OVC037,0.00,VWS V14.01,2013-08-17 04:31:00,
2013-08-17 00:36:00,62.7,60.0,30.08,WSW,254,0.0,0.0,91,0.00,,OVC037,0.00,VWS V14.01,2013-08-17 04:36:00,
2013-08-17 00:41:00,62.7,60.3,30.08,WSW,254,0.0,0.0,92,0.00,,OVC037,0.00,VWS V14.01,2013-08-17 04:41:00,
2013-08-17 00:46:00,62.6,59.9,30.08,WSW,254,0.0,0.0,91,0.00,,OVC065,0.00,VWS V14.01,2013-08-17 04:46:00,
2013-08-17 00:51:00,62.4,59.7,30.08,WSW,254,0.0,0.0,91,0.00,,OVC065,0.00,VWS V14.01,2013-08-17 04:51:00,
2013-08-17 00:56:00,62.4,59.7,30.08,WSW,254,0.0,0.0,91,0.00,,OVC065,0.00,VWS V14.01,2013-08-17 04:56:00,
2013-08-17 01:01:00,62.4,59.7,30.08,WSW,254,0.0,0.0,91,0.00,,OVC065,0.00,VWS V14.01,2013-08-17 05:01:00,
2013-08-17 01:06:00,62.4,59.7,30.08,WSW,254,0.0,0.0,91,0.00,,OVC065,0.00,VWS V14.01,2013-08-17 05:06:00,
2013-08-17 01:11:00,62.4,60.0,30.08,WSW,254,0.0,0.0,92,0.00,,OVC065,0.00,VWS V14.01,2013-08-17 05:11:00,
2013-08-17 01:16:00,62.4,60.0,30.08,WSW,254,0.0,0.0,92,0.00,,OVC065,0.00,VWS V14.01,2013-08-17 05:16:00,
2013-08-17 01:21:00,62.4,59.7,30.08,WSW,254,0.0,0.0,91,0.00,,OVC065,0.00,VWS V14.01,2013-08-17 05:21:00,
2013-08-17 01:26:00,62.4,60.3,30.08,WSW,254,0.0,0.0,93,0.01,,OVC065,0.01,VWS V14.01,2013-08-17 05:26:00,
2013-08-17 01:31:00,62.6,60.5,30.08,WSW,254,0.0,0.0,93,0.01,,OVC065,0.01,VWS V14.01,2013-08-17 05:31:00,
2013-08-17 01:36:00,62.4,60.3,30.08,WSW,254,0.0,0.0,93,0.01,,OVC065,0.01,VWS V14.01,2013-08-17 05:36:00,
2013-08-17 01:41:00,62.4,60.0,30.08,WSW,254,0.0,0.0,92,0.01,,OVC065,0.01,VWS V14.01,2013-08-17 05:41:00,
2013-08-17 01:46:00,62.3,60.0,30.08,WSW,254,0.0,0.0,92,0.01,,OVC060,0.01,VWS V14.01,2013-08-17 05:46:00,
2013-08-17 01:51:00,62.3,60.0,30.08,WSW,254,0.0,0.0,92,0.01,,OVC060,0.01,VWS V14.01,2013-08-17 05:51:00,
2013-08-17 01:56:00,62.3,60.0,30.08,WSW,254,0.0,0.0,92,0.01,,OVC060,0.01,VWS V14.01,2013-08-17 05:56:00,
2013-08-17 02:01:00,62.1,59.8,30.08,WSW,254,0.0,0.0,92,0.01,,OVC060,0.01,VWS V14.01,2013-08-17 06:01:00,
2013-08-17 02:06:00,62.0,59.7,30.08,WSW,254,0.0,0.0,92,0.02,,OVC060,0.02,VWS V14.01,2013-08-17 06:06:00,
2013-08-17 02:11:00,62.0,60.0,30.08,WSW,254,0.0,0.0,93,0.02,,OVC060,0.02,VWS V14.01,2013-08-17 06:11:00,
2013-08-17 02:16:00,61.8,59.8,30.08,WSW,254,0.0,0.0,93,0.02,,OVC060,0.02,VWS V14.01,2013-08-17 06:16:00,
2013-08-17 02:21:00,61.8,60.1,30.08,WSW,254,0.0,0.0,94,0.02,,OVC060,0.02,VWS V14.01,2013-08-17 06:21:00,
2013-08-17 02:26:00,61.6,59.9,30.08,WSW,254,0.0,0.0,94,0.02,,OVC060,0.02,VWS V14.01,2013-08-17 06:26:00,
2013-08-17 02:31:00,61.5,59.8,30.08,WSW,254,0.0,0.0,94,0.01,,OVC060,0.02,VWS V14.01,2013-08-17 06:31:00,
2013-08-17 02:36:00,61.5,59.8,30.08,WSW,254,0.0,0.0,94,0.01,,OVC060,0.02,VWS V14.01,2013-08-17 06:36:00,
2013-08-17 02:41:00,61.3,59.9,30.08,WSW,254,0.0,0.0,95,0.01,,OVC060,0.02,VWS V14.01,2013-08-17 06:41:00,
2013-08-17 02:46:00,61.3,59.9,30.07,WSW,254,0.0,0.0,95,0.01,,OVC050,0.02,VWS V14.01,2013-08-17 06:46:00,
2013-08-17 02:51:00,61.2,60.0,30.07,WSW,254,0.0,0.0,96,0.01,,OVC050,0.02,VWS V14.01,2013-08-17 06:51:00,
2013-08-17 02:56:00,61.2,60.0,30.07,WSW,254,0.0,0.0,96,0.01,,OVC050,0.02,VWS V14.01,2013-08-17 06:56:00,
2013-08-17 03:01:00,61.2,60.0,30.07,WSW,254,0.0,0.0,96,0.01,,OVC050,0.02,VWS V14.01,2013-08-17 07:01:00,
2013-08-17 03:06:00,61.0,59.9,30.07,WSW,254,0.0,0.0,96,0.01,,OVC050,0.02,VWS V14.01,2013-08-17 07:06:00,
2013-08-17 03:11:00,61.0,59.9,30.07,WSW,254,0.0,0.0,96,0.00,,OVC050,0.02,VWS V14.01,2013-08-17 07:11:00,
2013-08-17 03:16:00,61.0,60.2,30.07,WSW,254,0.0,0.0,97,0.00,,OVC050,0.02,VWS V14.01,2013-08-17 07:16:00,
2013-08-17 03:21:00,61.0,60.2,30.07,WSW,254,0.0,0.0,97,0.00,,OVC050,0.02,VWS V14.01,2013-08-17 07:21:00,
2013-08-17 03:26:00,61.0,60.2,30.07,WSW,254,0.0,0.0,97,0.00,,OVC050,0.02,VWS V14.01,2013-08-17 07:26:00,
2013-08-17 03:31:00,61.0,60.2,30.06,WSW,254,0.0,0.0,97,0.01,,OVC050,0.03,VWS V14.01,2013-08-17 07:31:00,
2013-08-17 03:36:00,61.0,60.2,30.06,WSW,254,0.0,0.0,97,0.01,,OVC050,0.03,VWS V14.01,2013-08-17 07:36:00,
2013-08-17 03:41:00,61.0,60.2,30.06,WSW,254,0.0,0.0,97,0.01,,OVC050,0.03,VWS V14.01,2013-08-17 07:41:00,
2013-08-17 03:46:00,60.9,60.0,30.06,WSW,254,0.0,0.0,97,0.01,,-RA,0.03,VWS V14.01,2013-08-17 07:46:00,
2013-08-17 03:51:00,60.9,60.0,30.06,WSW,254,0.0,0.0,97,0.01,,-RA,0.03,VWS V14.01,2013-08-17 07:51:00,
2013-08-17 03:56:00,60.9,60.0,30.06,WSW,254,0.0,0.0,97,0.01,,-RA,0.03,VWS V14.01,2013-08-17 07:56:00,
2013-08-17 04:01:00,60.9,60.0,30.05,WSW,254,0.0,0.0,97,0.01,,-RA,0.03,VWS V14.01,2013-08-17 08:01:00,
2013-08-17 04:06:00,60.9,60.0,30.05,WSW,254,0.0,0.0,97,0.01,,-RA,0.03,VWS V14.01,2013-08-17 08:06:00,
2013-08-17 04:11:00,60.9,60.0,30.05,WSW,254,0.0,0.0,97,0.01,,-RA,0.03,VWS V14.01,2013-08-17 08:11:00,
2013-08-17 04:16:00,60.9,60.3,30.05,WSW,254,0.0,0.0,98,0.01,,-RA,0.03,VWS V14.01,2013-08-17 08:16:00,
2013-08-17 04:20:00,61.0,60.4,30.05,WSW,254,0.0,0.0,98,0.01,,-RA,0.03,VWS V14.01,2013-08-17 08:20:00,
2013-08-17 04:26:00,61.0,60.4,30.05,WSW,254,0.0,0.0,98,0.01,,-RA,0.03,VWS V14.01,2013-08-17 08:26:00,
2013-08-17 04:31:00,61.2,60.6,30.06,WSW,254,0.0,0.0,98,0.01,,-RA,0.03,VWS V14.01,2013-08-17 08:31:00,
2013-08-17 04:35:00,61.2,60.6,30.06,WSW,254,0.0,0.0,98,0.00,,-RA,0.03,VWS V14.01,2013-08-17 08:35:00,
2013-08-17 04:41:00,61.2,60.6,30.06,WSW,254,0.0,0.0,98,0.00,,-RA,0.03,VWS V14.01,2013-08-17 08:41:00,
2013-08-17 04:46:00,61.3,60.7,30.06,WSW,254,0.0,0.0,98,0.00,,OVC045,0.03,VWS V14.01,2013-08-17 08:46:00,
2013-08-17 04:50:00,61.3,61.0,30.06,WSW,254,0.0,0.0,99,0.01,,OVC045,0.04,VWS V14.01,2013-08-17 08:50:00,
2013-08-17 04:55:00,61.3,61.0,30.06,WSW,254,0.0,0.0,99,0.01,,OVC045,0.04,VWS V14.01,2013-08-17 08:55:00,
2013-08-17 05:00:00,61.5,61.2,30.05,WSW,254,0.0,0.0,99,0.01,,OVC045,0.04,VWS V14.01,2013-08-17 09:00:00,
2013-08-17 05:05:00,61.5,61.2,30.05,WSW,254,0.0,0.0,99,0.01,,OVC045,0.04,VWS V14.01,2013-08-17 09:05:00,
2013-08-17 05:10:00,61.5,61.2,30.05,WSW,254,0.0,0.0,99,0.01,,OVC045,0.04,VWS V14.01,2013-08-17 09:10:00,
2013-08-17 05:15:00,61.6,61.6,30.05,WSW,254,0.0,0.0,100,0.01,,OVC045,0.04,VWS V14.01,2013-08-17 09:15:00,
2013-08-17 05:20:00,61.6,61.6,30.05,WSW,254,0.0,0.0,100,0.01,,OVC045,0.04,VWS V14.01,2013-08-17 09:20:00,
2013-08-17 05:25:00,61.6,61.6,30.05,WSW,254,0.0,0.0,100,0.01,,OVC045,0.04,VWS V14.01,2013-08-17 09:25:00,
2013-08-17 05:30:00,61.6,61.6,30.06,WSW,254,0.0,0.0,100,0.01,,OVC045,0.04,VWS V14.01,2013-08-17 09:30:00,
2013-08-17 05:35:00,61.8,61.8,30.06,WSW,254,0.0,0.0,100,0.01,,OVC045,0.04,VWS V14.01,2013-08-17 09:35:00,
2013-08-17 05:40:00,61.8,61.8,30.06,WSW,254,0.0,0.0,100,0.01,,OVC045,0.04,VWS V14.01,2013-08-17 09:40:00,
2013-08-17 05:45:00,61.8,61.8,30.05,WSW,254,0.0,0.0,100,0.01,,OVC060,0.04,VWS V14.01,2013-08-17 09:45:00,
2013-08-17 05:50:00,62.0,62.0,30.05,WSW,254,0.0,0.0,100,0.01,,OVC060,0.04,VWS V14.01,2013-08-17 09:50:00,
2013-08-17 05:55:00,62.0,62.0,30.05,WSW,254,0.0,0.0,100,0.00,,OVC060,0.04,VWS V14.01,2013-08-17 09:55:00,
2013-08-17 06:00:00,62.0,62.0,30.06,WSW,254,0.0,0.0,100,0.00,,OVC060,0.04,VWS V14.01,2013-08-17 10:00:00,
2013-08-17 06:05:00,62.0,62.0,30.06,WSW,254,0.0,0.0,100,0.00,,OVC060,0.04,VWS V14.01,2013-08-17 10:05:00,
2013-08-17 06:10:00,62.0,62.0,30.06,WSW,254,0.0,0.0,100,0.00,,OVC060,0.04,VWS V14.01,2013-08-17 10:10:00,
2013-08-17 06:15:00,62.0,62.0,30.06,WSW,254,0.0,0.0,100,0.00,,OVC060,0.04,VWS V14.01,2013-08-17 10:15:00,
2013-08-17 06:20:00,62.0,62.0,30.06,WSW,254,0.0,0.0,100,0.00,,OVC060,0.04,VWS V14.01,2013-08-17 10:20:00,
2013-08-17 06:25:00,62.0,62.0,30.06,WSW,254,0.0,0.0,100,0.00,,OVC060,0.04,VWS V14.01,2013-08-17 10:25:00,
2013-08-17 06:30:00,62.0,62.0,30.06,WSW,254,0.0,0.0,100,0.00,,OVC060,0.04,VWS V14.01,2013-08-17 10:30:00,
2013-08-17 06:35:00,62.0,62.0,30.06,WSW,254,0.0,0.0,100,0.00,,OVC060,0.04,VWS V14.01,2013-08-17 10:35:00,
2013-08-17 06:40:00,62.0,62.0,30.06,WSW,254,0.0,0.0,100,0.00,,OVC060,0.04,VWS V14.01,2013-08-17 10:40:00,
2013-08-17 06:45:00,62.0,62.0,30.06,WSW,254,0.0,0.0,100,0.00,,OVC045,0.04,VWS V14.01,2013-08-17 10:45:00,
2013-08-17 06:50:00,62.0,62.0,30.06,WSW,254,0.0,0.0,100,0.00,,OVC045,0.04,VWS V14.01,2013-08-17 10:50:00,
2013-08-17 06:55:00,62.0,62.0,30.06,WSW,254,0.0,0.0,100,0.00,,OVC045,0.04,VWS V14.01,2013-08-17 10:55:00,
2013-08-17 07:00:00,62.0,62.0,30.06,WSW,254,0.0,0.0,100,0.00,,OVC045,0.04,VWS V14.01,2013-08-17 11:00:00,
2013-08-17 07:05:00,62.0,62.0,30.07,WSW,254,0.0,0.0,100,0.00,,OVC045,0.04,VWS V14.01,2013-08-17 11:05:00,
2013-08-17 07:10:00,62.0,62.0,30.07,WSW,254,0.0,0.0,100,0.00,,OVC045,0.04,VWS V14.01,2013-08-17 11:10:00,
2013-08-17 07:15:00,62.0,62.0,30.07,WSW,254,0.0,0.0,100,0.00,,OVC045,0.04,VWS V14.01,2013-08-17 11:15:00,
2013-08-17 07:20:00,61.8,61.8,30.06,WSW,254,0.0,0.0,100,0.00,,OVC045,0.04,VWS V14.01,2013-08-17 11:20:00,
2013-08-17 07:25:00,61.8,61.8,30.06,WSW,254,0.0,0.0,100,0.00,,OVC045,0.04,VWS V14.01,2013-08-17 11:25:00,
2013-08-17 07:30:00,61.8,61.8,30.06,WSW,254,0.0,0.0,100,0.00,,OVC045,0.04,VWS V14.01,2013-08-17 11:30:00,
2013-08-17 07:35:00,61.8,61.8,30.07,WSW,254,0.0,0.0,100,0.00,,OVC045,0.04,VWS V14.01,2013-08-17 11:35:00,
2013-08-17 07:40:00,62.0,62.0,30.07,WSW,254,0.0,0.0,100,0.00,,OVC045,0.04,VWS V14.01,2013-08-17 11:40:00,
2013-08-17 07:45:00,61.8,61.8,30.07,WSW,254,0.0,0.0,100,0.00,,OVC060,0.04,VWS V14.01,2013-08-17 11:45:00,
2013-08-17 07:50:00,61.8,61.8,30.07,WSW,254,0.0,0.0,100,0.00,,OVC060,0.04,VWS V14.01,2013-08-17 11:50:00,
2013-08-17 07:55:00,61.8,61.8,30.07,WSW,254,0.0,0.0,100,0.00,,OVC060,0.04,VWS V14.01,2013-08-17 11:55:00,
2013-08-17 08:00:00,61.8,61.8,30.07,WSW,254,0.0,0.0,100,0.00,,OVC060,0.04,VWS V14.01,2013-08-17 12:00:00,
2013-08-17 08:05:00,62.0,62.0,30.08,WSW,254,0.0,0.0,100,0.00,,OVC060,0.04,VWS V14.01,2013-08-17 12:05:00,
2013-08-17 08:06:00,62.0,62.0,30.08,WSW,254,0.0,0.0,100,0.00,,OVC060,0.04,VWS V14.01,2013-08-17 12:06:00,
2013-08-17 08:11:00,62.0,62.0,30.08,WSW,254,0.0,0.0,100,0.00,,OVC060,0.04,VWS V14.01,2013-08-17 12:11:00,
2013-08-17 08:16:00,62.1,62.1,30.08,WSW,254,0.0,0.0,100,0.00,,OVC060,0.04,VWS V14.01,2013-08-17 12:16:00,
2013-08-17 08:20:00,62.1,62.1,30.08,WSW,254,0.0,0.0,100,0.00,,OVC060,0.04,VWS V14.01,2013-08-17 12:20:00,
2013-08-17 08:25:00,62.0,62.0,30.08,WSW,254,0.0,0.0,100,0.00,,OVC060,0.04,VWS V14.01,2013-08-17 12:25:00,
2013-08-17 08:30:00,62.0,62.0,30.08,WSW,254,0.0,0.0,100,0.00,,OVC060,0.04,VWS V14.01,2013-08-17 12:30:00,
2013-08-17 08:35:00,62.0,62.0,30.08,WSW,254,0.0,0.0,100,0.00,,OVC060,0.04,VWS V14.01,2013-08-17 12:35:00,
2013-08-17 08:40:00,61.8,61.5,30.08,WSW,254,0.0,0.0,99,0.00,,OVC060,0.04,VWS V14.01,2013-08-17 12:40:00,
2013-08-17 08:45:00,61.8,61.2,30.09,WSW,254,0.0,0.0,98,0.00,,OVC060,0.04,VWS V14.01,2013-08-17 12:45:00,
2013-08-17 08:50:00,61.8,61.2,30.09,WSW,254,0.0,0.0,98,0.00,,OVC060,0.04,VWS V14.01,2013-08-17 12:50:00,
2013-08-17 08:55:00,61.8,61.2,30.09,WSW,254,0.0,0.0,98,0.00,,OVC060,0.04,VWS V14.01,2013-08-17 12:55:00,
2013-08-17 09:00:00,61.8,61.2,30.09,WSW,254,0.0,0.0,98,0.00,,OVC085,0.04,VWS V14.01,2013-08-17 13:00:00,
2013-08-17 09:05:00,61.8,61.2,30.09,WSW,254,0.0,0.0,98,0.00,,OVC085,0.04,VWS V14.01,2013-08-17 13:05:00,
2013-08-17 09:10:00,61.8,60.9,30.09,WSW,254,0.0,0.0,97,0.00,,OVC085,0.04,VWS V14.01,2013-08-17 13:10:00,
2013-08-17 09:15:00,61.8,60.9,30.09,WSW,254,0.0,0.0,97,0.00,,OVC085,0.04,VWS V14.01,2013-08-17 13:15:00,
2013-08-17 09:20:00,61.8,60.9,30.09,WSW,254,0.0,0.0,97,0.00,,OVC085,0.04,VWS V14.01,2013-08-17 13:20:00,
2013-08-17 09:25:00,62.0,61.1,30.09,WSW,254,0.0,0.0,97,0.00,,OVC085,0.04,VWS V14.01,2013-08-17 13:25:00,
2013-08-17 09:30:00,62.1,61.2,30.09,WSW,254,0.0,0.0,97,0.00,,OVC085,0.04,VWS V14.01,2013-08-17 13:30:00,
2013-08-17 09:35:00,62.3,61.4,30.09,WSW,254,0.0,0.0,97,0.00,,OVC085,0.04,VWS V14.01,2013-08-17 13:35:00,
2013-08-17 09:40:00,62.4,61.5,30.09,WSW,254,0.0,0.0,97,0.01,,OVC085,0.05,VWS V14.01,2013-08-17 13:40:00,
2013-08-17 09:45:00,62.6,61.5,30.09,WSW,254,0.0,0.0,96,0.01,,OVC030,0.05,VWS V14.01,2013-08-17 13:45:00,
2013-08-17 09:50:00,62.7,61.5,30.09,WSW,254,0.0,0.0,96,0.01,,OVC030,0.05,VWS V14.01,2013-08-17 13:50:00,
2013-08-17 09:55:00,62.7,61.5,30.09,WSW,254,0.0,0.0,96,0.01,,OVC030,0.05,VWS V14.01,2013-08-17 13:55:00,
2013-08-17 10:00:00,62.9,61.8,30.09,WSW,254,0.0,0.0,96,0.01,,OVC028,0.05,VWS V14.01,2013-08-17 14:00:00,
2013-08-17 10:05:00,62.9,61.8,30.09,WSW,254,0.0,0.0,96,0.01,,OVC028,0.05,VWS V14.01,2013-08-17 14:05:00,
2013-08-17 10:10:00,62.7,61.5,30.09,WSW,254,0.0,0.0,96,0.01,,OVC028,0.05,VWS V14.01,2013-08-17 14:10:00,
2013-08-17 10:15:00,62.7,61.2,30.09,WSW,254,0.0,0.0,95,0.01,,OVC028,0.05,VWS V14.01,2013-08-17 14:15:00,
2013-08-17 10:20:00,62.9,61.5,30.10,WSW,254,0.0,0.0,95,0.01,,OVC028,0.05,VWS V14.01,2013-08-17 14:20:00,
2013-08-17 10:25:00,62.9,61.5,30.10,WSW,254,0.0,0.0,95,0.01,,OVC028,0.05,VWS V14.01,2013-08-17 14:25:00,
2013-08-17 10:30:00,63.1,61.7,30.10,WSW,254,0.0,0.0,95,0.01,,OVC028,0.05,VWS V14.01,2013-08-17 14:30:00,
2013-08-17 10:35:00,62.9,61.2,30.10,WSW,254,0.0,0.0,94,0.01,,OVC028,0.05,VWS V14.01,2013-08-17 14:35:00,
2013-08-17 10:40:00,62.9,61.2,30.10,WSW,254,0.0,0.0,94,0.01,,OVC028,0.05,VWS V14.01,2013-08-17 14:40:00,
2013-08-17 10:45:00,63.1,61.3,30.10,WSW,254,0.0,0.0,94,0.00,,OVC028,0.05,VWS V14.01,2013-08-17 14:45:00,
2013-08-17 10:50:00,63.1,61.3,30.11,WSW,254,0.0,0.0,94,0.00,,OVC028,0.05,VWS V14.01,2013-08-17 14:50:00,
2013-08-17 10:55:00,63.1,61.3,30.11,WSW,254,0.0,0.0,94,0.00,,OVC028,0.05,VWS V14.01,2013-08-17 14:55:00,
2013-08-17 11:00:00,63.2,61.5,30.11,South,178,0.0,0.0,94,0.00,,OVC028,0.05,VWS V14.01,2013-08-17 15:00:00,
2013-08-17 11:05:00,63.2,61.5,30.11,East,92,0.0,3.0,94,0.00,,OVC028,0.05,VWS V14.01,2013-08-17 15:05:00,
2013-08-17 11:10:00,63.5,62.0,30.11,South,190,0.0,1.0,95,0.00,,OVC028,0.05,VWS V14.01,2013-08-17 15:10:00,
2013-08-17 11:15:00,63.9,62.4,30.11,South,179,2.0,2.0,95,0.00,,OVC028,0.05,VWS V14.01,2013-08-17 15:15:00,
2013-08-17 11:20:00,63.9,62.1,30.11,NW,321,0.0,0.0,94,0.00,,OVC028,0.05,VWS V14.01,2013-08-17 15:20:00,
2013-08-17 11:25:00,63.9,61.8,30.11,East,86,2.0,4.0,93,0.00,,OVC028,0.05,VWS V14.01,2013-08-17 15:25:00,
2013-08-17 11:30:00,64.0,61.9,30.11,SSE,151,0.0,0.0,93,0.00,,OVC028,0.05,VWS V14.01,2013-08-17 15:30:00,
2013-08-17 11:35:00,64.0,61.6,30.11,ENE,77,2.0,3.0,92,0.00,,OVC028,0.05,VWS V14.01,2013-08-17 15:35:00,
2013-08-17 11:40:00,64.0,61.6,30.11,SW,236,0.0,4.0,92,0.00,,OVC028,0.05,VWS V14.01,2013-08-17 15:40:00,
2013-08-17 11:45:00,64.2,61.8,30.11,WSW,238,0.0,3.0,92,0.00,,OVC032,0.05,VWS V14.01,2013-08-17 15:45:00,
2013-08-17 11:50:00,64.3,62.2,30.11,ENE,65,0.0,4.0,93,0.00,,OVC032,0.05,VWS V14.01,2013-08-17 15:50:00,
2013-08-17 11:55:00,64.3,62.2,30.11,WNW,286,0.0,1.0,93,0.00,,OVC032,0.05,VWS V14.01,2013-08-17 15:55:00,
2013-08-17 12:00:00,64.3,61.9,30.11,SSE,162,0.0,2.0,92,0.00,,OVC032,0.05,VWS V14.01,2013-08-17 16:00:00,
2013-08-17 12:05:00,64.5,62.4,30.11,WSW,242,2.0,2.0,93,0.00,,OVC032,0.05,VWS V14.01,2013-08-17 16:05:00,
2013-08-17 12:10:00,64.5,62.4,30.11,SW,216,0.0,0.0,93,0.00,,OVC032,0.05,VWS V14.01,2013-08-17 16:10:00,
2013-08-17 12:15:00,64.7,62.6,30.11,SE,135,1.0,3.0,93,0.00,,OVC032,0.05,VWS V14.01,2013-08-17 16:15:00,
2013-08-17 12:20:00,64.8,62.7,30.10,ENE,71,0.0,5.0,93,0.00,,OVC032,0.05,VWS V14.01,2013-08-17 16:20:00,
2013-08-17 12:25:00,64.8,62.1,30.10,East,98,0.0,2.0,91,0.00,,OVC032,0.05,VWS V14.01,2013-08-17 16:25:00,
2013-08-17 12:30:00,65.0,62.3,30.10,East,79,0.0,3.0,91,0.00,,OVC032,0.05,VWS V14.01,2013-08-17 16:30:00,
2013-08-17 12:35:00,65.2,62.2,30.09,East,86,0.0,2.0,90,0.00,,OVC032,0.05,VWS V14.01,2013-08-17 16:35:00,
2013-08-17 12:40:00,65.3,62.6,30.09,SSE,167,0.0,2.0,91,0.00,,OVC032,0.05,VWS V14.01,2013-08-17 16:40:00,
2013-08-17 12:45:00,65.5,62.2,30.09,East,96,3.0,4.0,89,0.00,,OVC034,0.05,VWS V14.01,2013-08-17 16:45:00,
2013-08-17 12:50:00,65.3,61.7,30.09,SE,134,1.0,3.0,88,0.00,,OVC034,0.05,VWS V14.01,2013-08-17 16:50:00,
2013-08-17 12:55:00,65.3,61.3,30.09,WSW,241,1.0,2.0,87,0.00,,OVC034,0.05,VWS V14.01,2013-08-17 16:55:00,
2013-08-17 13:00:00,65.3,61.7,30.09,East,90,0.0,4.0,88,0.00,,OVC034,0.05,VWS V14.01,2013-08-17 17:00:00,
2013-08-17 13:05:00,65.3,62.0,30.09,North,360,1.0,3.0,89,0.00,,OVC034,0.05,VWS V14.01,2013-08-17 17:05:00,
2013-08-17 13:10:00,65.3,62.0,30.09,NE,55,0.0,1.0,89,0.00,,OVC034,0.05,VWS V14.01,2013-08-17 17:10:00,
2013-08-17 13:15:00,65.3,61.7,30.09,NNW,342,0.0,1.0,88,0.00,,OVC034,0.05,VWS V14.01,2013-08-17 17:15:00,
2013-08-17 13:20:00,65.3,61.7,30.09,ENE,57,2.0,2.0,88,0.00,,OVC034,0.05,VWS V14.01,2013-08-17 17:20:00,
2013-08-17 13:25:00,65.2,60.9,30.09,SE,129,0.0,3.0,86,0.00,,OVC034,0.05,VWS V14.01,2013-08-17 17:25:00,
2013-08-17 13:30:00,65.3,61.3,30.09,North,355,0.0,0.0,87,0.00,,OVC034,0.05,VWS V14.01,2013-08-17 17:30:00,
2013-08-17 13:35:00,65.3,61.7,30.09,East,86,0.0,3.0,88,0.00,,OVC034,0.05,VWS V14.01,2013-08-17 17:35:00,
2013-08-17 13:40:00,65.5,62.2,30.09,East,95,0.0,1.0,89,0.00,,OVC034,0.05,VWS V14.01,2013-08-17 17:40:00,
2013-08-17 13:45:00,65.5,61.9,30.09,East,94,0.0,4.0,88,0.00,,OVC027,0.05,VWS V14.01,2013-08-17 17:45:00,
2013-08-17 13:50:00,65.5,62.2,30.09,ESE,107,0.0,1.0,89,0.00,,OVC027,0.05,VWS V14.01,2013-08-17 17:50:00,
2013-08-17 13:55:00,65.5,62.5,30.09,ESE,111,0.0,0.0,90,0.00,,OVC027,0.05,VWS V14.01,2013-08-17 17:55:00,
2013-08-17 14:00:00,65.6,62.6,30.09,NE,46,0.0,1.0,90,0.00,,OVC027,0.05,VWS V14.01,2013-08-17 18:00:00,
2013-08-17 14:05:00,65.6,62.6,30.08,ENE,65,3.0,4.0,90,0.00,,OVC027,0.05,VWS V14.01,2013-08-17 18:05:00,
2013-08-17 14:10:00,65.6,62.6,30.08,ESE,103,2.0,2.0,90,0.00,,OVC027,0.05,VWS V14.01,2013-08-17 18:10:00,
2013-08-17 14:15:00,65.8,62.8,30.08,East,89,0.0,0.0,90,0.00,,OVC027,0.05,VWS V14.01,2013-08-17 18:15:00,
2013-08-17 14:20:00,66.0,63.3,30.08,NE,46,0.0,1.0,91,0.00,,OVC027,0.05,VWS V14.01,2013-08-17 18:20:00,
2013-08-17 14:25:00,66.0,63.0,30.08,SSE,163,0.0,1.0,90,0.00,,OVC027,0.05,VWS V14.01,2013-08-17 18:25:00,
2013-08-17 14:30:00,66.1,62.8,30.08,ENE,69,0.0,3.0,89,0.00,,OVC027,0.05,VWS V14.01,2013-08-17 18:30:00,
2013-08-17 14:35:00,66.1,63.4,30.08,NNW,348,0.0,0.0,91,0.00,,OVC027,0.05,VWS V14.01,2013-08-17 18:35:00,
2013-08-17 14:40:00,66.3,63.6,30.08,SSE,159,0.0,3.0,91,0.00,,OVC027,0.05,VWS V14.01,2013-08-17 18:40:00,
2013-08-17 14:45:00,66.4,63.7,30.08,North,5,0.0,2.0,91,0.00,,OVC021,0.05,VWS V14.01,2013-08-17 18:45:00,
2013-08-17 14:50:00,66.4,63.1,30.08,ESE,115,1.0,3.0,89,0.00,,OVC021,0.05,VWS V14.01,2013-08-17 18:50:00,
2013-08-17 14:55:00,66.4,63.1,30.08,ESE,105,0.0,3.0,89,0.00,,OVC021,0.05,VWS V14.01,2013-08-17 18:55:00,
2013-08-17 15:00:00,66.6,63.3,30.08,ESE,102,0.0,6.0,89,0.00,,OVC021,0.05,VWS V14.01,2013-08-17 19:00:00,
2013-08-17 15:05:00,66.8,63.1,30.06,ENE,57,4.0,4.0,88,0.00,,OVC021,0.05,VWS V14.01,2013-08-17 19:05:00,
2013-08-17 15:10:00,66.9,62.9,30.06,West,267,0.0,5.0,87,0.00,,OVC021,0.05,VWS V14.01,2013-08-17 19:10:00,
2013-08-17 15:15:00,66.9,62.9,30.06,East,82,0.0,5.0,87,0.00,,OVC021,0.05,VWS V14.01,2013-08-17 19:15:00,
2013-08-17 15:20:00,66.9,62.9,30.06,West,274,0.0,4.0,87,0.00,,OVC021,0.05,VWS V14.01,2013-08-17 19:20:00,
2013-08-17 15:25:00,66.8,63.1,30.06,ESE,120,0.0,3.0,88,0.00,,OVC021,0.05,VWS V14.01,2013-08-17 19:25:00,
2013-08-17 15:30:00,66.8,63.1,30.06,SE,141,0.0,4.0,88,0.00,,OVC021,0.05,VWS V14.01,2013-08-17 19:30:00,
2013-08-17 15:35:00,66.8,62.8,30.06,SSE,151,0.0,0.0,87,0.00,,OVC021,0.05,VWS V14.01,2013-08-17 19:35:00,
2013-08-17 15:40:00,66.9,63.2,30.06,SSE,161,0.0,1.0,88,0.00,,OVC021,0.05,VWS V14.01,2013-08-17 19:40:00,
2013-08-17 15:45:00,66.9,63.2,30.06,SSE,161,0.0,0.0,88,0.00,,OVC019,0.05,VWS V14.01,2013-08-17 19:45:00,
2013-08-17 15:50:00,66.9,63.2,30.06,WNW,284,3.0,3.0,88,0.00,,OVC019,0.05,VWS V14.01,2013-08-17 19:50:00,
2013-08-17 15:55:00,66.8,63.1,30.06,ESE,121,0.0,2.0,88,0.00,,OVC019,0.05,VWS V14.01,2013-08-17 19:55:00,
2013-08-17 16:00:00,66.8,63.1,30.06,ESE,123,0.0,1.0,88,0.00,,OVC019,0.05,VWS V14.01,2013-08-17 20:00:00,
2013-08-17 16:05:00,66.6,62.9,30.06,East,86,0.0,0.0,88,0.00,,OVC019,0.05,VWS V14.01,2013-08-17 20:05:00,
2013-08-17 16:10:00,66.6,63.6,30.06,ENE,76,0.0,0.0,90,0.00,,OVC019,0.05,VWS V14.01,2013-08-17 20:10:00,
2013-08-17 16:15:00,66.6,63.6,30.06,East,88,0.0,2.0,90,0.00,,OVC019,0.05,VWS V14.01,2013-08-17 20:15:00,
2013-08-17 16:20:00,66.4,63.7,30.06,SE,124,0.0,0.0,91,0.01,,OVC019,0.06,VWS V14.01,2013-08-17 20:20:00,
2013-08-17 16:25:00,66.4,64.0,30.06,East,90,0.0,1.0,92,0.01,,OVC019,0.06,VWS V14.01,2013-08-17 20:25:00,
2013-08-17 16:30:00,66.3,63.9,30.06,ESE,116,0.0,0.0,92,0.01,,OVC019,0.06,VWS V14.01,2013-08-17 20:30:00,
2013-08-17 16:35:00,66.1,63.7,30.06,SE,133,0.0,0.0,92,0.01,,OVC019,0.06,VWS V14.01,2013-08-17 20:35:00,
2013-08-17 16:40:00,66.1,64.0,30.06,SE,132,0.0,0.0,93,0.02,,OVC019,0.07,VWS V14.01,2013-08-17 20:40:00,
2013-08-17 16:45:00,66.1,64.3,30.06,ESE,119,0.0,0.0,94,0.02,,OVC017,0.07,VWS V14.01,2013-08-17 20:45:00,
2013-08-17 16:50:00,66.0,64.2,30.06,ESE,119,0.0,0.0,94,0.02,,OVC017,0.07,VWS V14.01,2013-08-17 20:50:00,
2013-08-17 16:55:00,66.0,64.2,30.06,ESE,103,0.0,0.0,94,0.02,,OVC017,0.07,VWS V14.01,2013-08-17 20:55:00,
2013-08-17 17:00:00,66.0,64.5,30.06,ESE,103,0.0,0.0,95,0.02,,OVC017,0.07,VWS V14.01,2013-08-17 21:00:00,
2013-08-17 17:05:00,66.0,64.5,30.06,ESE,103,0.0,0.0,95,0.02,,OVC017,0.07,VWS V14.01,2013-08-17 21:05:00,
2013-08-17 17:09:00,66.0,64.8,30.06,ENE,64,0.0,1.0,96,0.03,,OVC017,0.08,VWS V14.01,2013-08-17 21:09:00,
2013-08-17 17:14:00,66.0,64.8,30.06,ENE,64,0.0,0.0,96,0.03,,OVC017,0.08,VWS V14.01,2013-08-17 21:14:00,
2013-08-17 17:19:00,66.0,64.8,30.06,ENE,64,0.0,0.0,96,0.02,,-RA,0.08,VWS V14.01,2013-08-17 21:19:00,
2013-08-17 17:24:00,66.0,64.8,30.06,ENE,64,0.0,0.0,96,0.02,,-RA,0.08,VWS V14.01,2013-08-17 21:24:00,
2013-08-17 17:30:00,65.8,64.6,30.06,ENE,64,0.0,0.0,96,0.02,,-RA,0.08,VWS V14.01,2013-08-17 21:30:00,
2013-08-17 17:34:00,65.8,64.6,30.06,ENE,64,0.0,0.0,96,0.03,,-RA,0.09,VWS V14.01,2013-08-17 21:34:00,
2013-08-17 17:39:00,65.8,64.9,30.06,ENE,64,0.0,0.0,97,0.02,,-RA,0.09,VWS V14.01,2013-08-17 21:39:00,
2013-08-17 17:44:00,65.8,64.9,30.06,ENE,64,0.0,0.0,97,0.02,,-RA,0.09,VWS V14.01,2013-08-17 21:44:00,
2013-08-17 17:49:00,65.8,64.9,30.06,ENE,64,0.0,0.0,97,0.03,,-RA,0.10,VWS V14.01,2013-08-17 21:49:00,
2013-08-17 17:54:00,65.8,64.9,30.06,ENE,64,0.0,0.0,97,0.03,,-RA,0.10,VWS V14.01,2013-08-17 21:54:00,
2013-08-17 17:59:00,65.8,64.9,30.06,ENE,64,0.0,0.0,97,0.03,,-RA,0.10,VWS V14.01,2013-08-17 21:59:00,
2013-08-17 18:04:00,65.6,64.7,30.06,ENE,64,0.0,0.0,97,0.03,,-RA,0.10,VWS V14.01,2013-08-17 22:04:00,
2013-08-17 18:09:00,65.6,64.7,30.06,ENE,64,0.0,0.0,97,0.03,,-RA,0.10,VWS V14.01,2013-08-17 22:09:00,
2013-08-17 18:14:00,65.6,64.7,30.06,ENE,64,0.0,0.0,97,0.03,,-RA,0.11,VWS V14.01,2013-08-17 22:14:00,
2013-08-17 18:19:00,65.5,64.6,30.06,ENE,64,0.0,0.0,97,0.03,,-RA,0.11,VWS V14.01,2013-08-17 22:19:00,
2013-08-17 18:24:00,65.5,64.9,30.06,ENE,64,0.0,0.0,98,0.03,,-RA,0.11,VWS V14.01,2013-08-17 22:24:00,
2013-08-17 18:29:00,65.5,64.9,30.06,ENE,64,0.0,0.0,98,0.03,,-RA,0.11,VWS V14.01,2013-08-17 22:29:00,
2013-08-17 18:34:00,65.5,64.9,30.06,ENE,64,0.0,0.0,98,0.03,,-RA,0.11,VWS V14.01,2013-08-17 22:34:00,
2013-08-17 18:39:00,65.3,64.7,30.06,ENE,64,0.0,0.0,98,0.02,,-RA,0.11,VWS V14.01,2013-08-17 22:39:00,
2013-08-17 18:44:00,65.3,65.0,30.06,ENE,64,0.0,0.0,99,0.03,,-RA,0.12,VWS V14.01,2013-08-17 22:44:00,
2013-08-17 18:49:00,65.3,65.0,30.06,ENE,64,0.0,0.0,99,0.03,,-RA,0.12,VWS V14.01,2013-08-17 22:49:00,
2013-08-17 18:54:00,65.3,65.0,30.06,ENE,64,0.0,0.0,99,0.02,,-RA,0.12,VWS V14.01,2013-08-17 22:54:00,
2013-08-17 18:59:00,65.2,64.9,30.06,ENE,64,0.0,0.0,99,0.03,,-RA,0.13,VWS V14.01,2013-08-17 22:59:00,
2013-08-17 19:04:00,65.2,65.2,30.06,ENE,64,0.0,0.0,100,0.03,,-RA,0.13,VWS V14.01,2013-08-17 23:04:00,
2013-08-17 19:09:00,65.2,65.2,30.06,ENE,64,0.0,0.0,100,0.03,,-RA,0.13,VWS V14.01,2013-08-17 23:09:00,
2013-08-17 19:14:00,65.0,65.0,30.06,ENE,64,0.0,0.0,100,0.03,,-RA,0.13,VWS V14.01,2013-08-17 23:14:00,
2013-08-17 19:19:00,65.0,65.0,30.06,ENE,64,0.0,0.0,100,0.02,,-RA,0.13,VWS V14.01,2013-08-17 23:19:00,
2013-08-17 19:24:00,65.0,65.0,30.06,ENE,64,0.0,0.0,100,0.02,,-RA,0.13,VWS V14.01,2013-08-17 23:24:00,
2013-08-17 19:29:00,65.0,65.0,30.06,ENE,64,0.0,0.0,100,0.02,,-RA,0.13,VWS V14.01,2013-08-17 23:29:00,
2013-08-17 19:34:00,64.8,64.8,30.06,ENE,64,0.0,0.0,100,0.02,,-RA,0.13,VWS V14.01,2013-08-17 23:34:00,
2013-08-17 19:39:00,65.0,65.0,30.06,ENE,64,0.0,0.0,100,0.02,,-RA,0.13,VWS V14.01,2013-08-17 23:39:00,
2013-08-17 19:44:00,64.8,64.8,30.06,ENE,64,0.0,0.0,100,0.02,,-RA,0.13,VWS V14.01,2013-08-17 23:44:00,
2013-08-17 19:49:00,64.8,64.8,30.06,ENE,64,0.0,0.0,100,0.01,,-RA,0.13,VWS V14.01,2013-08-17 23:49:00,
2013-08-17 19:54:00,64.8,64.8,30.06,ENE,64,0.0,0.0,100,0.01,,-RA,0.13,VWS V14.01,2013-08-17 23:54:00,
2013-08-17 19:59:00,64.8,64.8,30.06,ENE,64,0.0,0.0,100,0.01,,-RA,0.13,VWS V14.01,2013-08-17 23:59:00,
2013-08-17 20:04:00,64.8,64.8,30.06,ENE,64,0.0,0.0,100,0.01,,-RA,0.14,VWS V14.01,2013-08-18 00:04:00,
2013-08-17 20:09:00,64.8,64.8,30.06,ENE,64,0.0,0.0,100,0.01,,-RA,0.14,VWS V14.01,2013-08-18 00:09:00,
2013-08-17 20:14:00,64.7,64.7,30.06,ENE,64,0.0,0.0,100,0.01,,-RA,0.14,VWS V14.01,2013-08-18 00:14:00,
2013-08-17 20:19:00,64.7,64.7,30.06,ENE,64,0.0,0.0,100,0.01,,-RA,0.14,VWS V14.01,2013-08-18 00:19:00,
2013-08-17 20:24:00,64.7,64.7,30.06,ENE,64,0.0,0.0,100,0.01,,-RA,0.14,VWS V14.01,2013-08-18 00:24:00,
2013-08-17 20:29:00,64.7,64.7,30.06,ENE,64,0.0,0.0,100,0.01,,-RA,0.14,VWS V14.01,2013-08-18 00:29:00,
2013-08-17 20:34:00,64.5,64.5,30.06,ENE,64,0.0,0.0,100,0.01,,-RA,0.14,VWS V14.01,2013-08-18 00:34:00,
2013-08-17 20:39:00,64.5,64.5,30.06,ENE,64,0.0,0.0,100,0.01,,-RA,0.14,VWS V14.01,2013-08-18 00:39:00,
2013-08-17 20:44:00,64.5,64.5,30.06,ENE,64,0.0,0.0,100,0.01,,-RA,0.14,VWS V14.01,2013-08-18 00:44:00,
2013-08-17 20:49:00,64.5,64.5,30.07,ENE,64,0.0,0.0,100,0.01,,OVC020,0.14,VWS V14.01,2013-08-18 00:49:00,
2013-08-17 20:54:00,64.5,64.5,30.07,ENE,64,0.0,0.0,100,0.01,,OVC020,0.14,VWS V14.01,2013-08-18 00:54:00,
2013-08-17 20:59:00,64.5,64.5,30.07,ENE,64,0.0,0.0,100,0.01,,OVC020,0.14,VWS V14.01,2013-08-18 00:59:00,
2013-08-17 21:04:00,64.5,64.5,30.08,ENE,64,0.0,0.0,100,0.00,,OVC020,0.14,VWS V14.01,2013-08-18 01:04:00,
2013-08-17 21:09:00,64.5,64.5,30.08,ENE,64,0.0,0.0,100,0.00,,OVC020,0.14,VWS V14.01,2013-08-18 01:09:00,
2013-08-17 21:14:00,64.7,64.7,30.08,ENE,64,0.0,0.0,100,0.00,,OVC020,0.14,VWS V14.01,2013-08-18 01:14:00,
2013-08-17 21:19:00,64.5,64.5,30.08,ENE,64,0.0,0.0,100,0.00,,OVC020,0.14,VWS V14.01,2013-08-18 01:19:00,
2013-08-17 21:24:00,64.5,64.5,30.08,ENE,64,0.0,0.0,100,0.01,,OVC020,0.15,VWS V14.01,2013-08-18 01:24:00,
2013-08-17 21:29:00,64.5,64.5,30.08,ENE,64,0.0,0.0,100,0.01,,OVC020,0.15,VWS V14.01,2013-08-18 01:29:00,
2013-08-17 21:34:00,64.5,64.5,30.08,ENE,64,0.0,0.0,100,0.01,,OVC020,0.15,VWS V14.01,2013-08-18 01:34:00,
2013-08-17 21:39:00,64.7,64.7,30.08,ENE,64,0.0,0.0,100,0.01,,OVC020,0.15,VWS V14.01,2013-08-18 01:39:00,
2013-08-17 21:44:00,64.5,64.5,30.08,ENE,64,0.0,0.0,100,0.01,,OVC020,0.15,VWS V14.01,2013-08-18 01:44:00,
2013-08-17 21:49:00,64.5,64.5,30.09,ENE,64,0.0,0.0,100,0.01,,-RA,0.15,VWS V14.01,2013-08-18 01:49:00,
2013-08-17 21:54:00,64.5,64.5,30.09,ENE,64,0.0,0.0,100,0.01,,-RA,0.15,VWS V14.01,2013-08-18 01:54:00,
2013-08-17 21:59:00,64.5,64.5,30.09,ENE,64,0.0,0.0,100,0.01,,-RA,0.15,VWS V14.01,2013-08-18 01:59:00,
2013-08-17 22:04:00,64.5,64.5,30.09,ENE,64,0.0,0.0,100,0.01,,-RA,0.15,VWS V14.01,2013-08-18 02:04:00,
2013-08-17 22:09:00,64.5,64.5,30.09,ENE,64,0.0,0.0,100,0.01,,-RA,0.15,VWS V14.01,2013-08-18 02:09:00,
2013-08-17 22:14:00,64.5,64.5,30.09,ENE,64,0.0,0.0,100,0.01,,-RA,0.15,VWS V14.01,2013-08-18 02:14:00,
2013-08-17 22:19:00,64.5,64.5,30.09,ENE,64,0.0,0.0,100,0.01,,-RA,0.15,VWS V14.01,2013-08-18 02:19:00,
2013-08-17 22:24:00,64.5,64.5,30.09,ENE,64,0.0,0.0,100,0.01,,-RA,0.15,VWS V14.01,2013-08-18 02:24:00,
2013-08-17 22:29:00,64.5,64.5,30.09,ENE,64,0.0,0.0,100,0.00,,-RA,0.15,VWS V14.01,2013-08-18 02:29:00,
2013-08-17 22:34:00,64.5,64.5,30.10,ENE,64,0.0,0.0,100,0.00,,-RA,0.15,VWS V14.01,2013-08-18 02:34:00,
2013-08-17 22:39:00,64.5,64.5,30.10,ENE,64,0.0,0.0,100,0.00,,-RA,0.15,VWS V14.01,2013-08-18 02:39:00,
2013-08-17 22:44:00,64.5,64.5,30.10,ENE,64,0.0,0.0,100,0.00,,-RA,0.15,VWS V14.01,2013-08-18 02:44:00,
2013-08-17 22:49:00,64.7,64.7,30.10,ENE,64,0.0,0.0,100,0.01,,OVC015,0.16,VWS V14.01,2013-08-18 02:49:00,
2013-08-17 22:54:00,64.5,64.5,30.10,ENE,64,0.0,0.0,100,0.01,,OVC015,0.16,VWS V14.01,2013-08-18 02:54:00,
2013-08-17 22:59:00,64.5,64.5,30.10,ENE,64,0.0,0.0,100,0.01,,OVC015,0.16,VWS V14.01,2013-08-18 02:59:00,
2013-08-17 23:04:00,64.5,64.5,30.10,ENE,64,0.0,0.0,100,0.01,,OVC015,0.16,VWS V14.01,2013-08-18 03:04:00,
2013-08-17 23:09:00,64.5,64.5,30.10,ENE,64,0.0,0.0,100,0.01,,OVC015,0.16,VWS V14.01,2013-08-18 03:09:00,
2013-08-17 23:14:00,64.5,64.5,30.10,ENE,64,0.0,0.0,100,0.01,,OVC015,0.16,VWS V14.01,2013-08-18 03:14:00,
2013-08-17 23:19:00,64.5,64.5,30.10,ENE,64,0.0,0.0,100,0.01,,OVC015,0.16,VWS V14.01,2013-08-18 03:19:00,
2013-08-17 23:24:00,64.5,64.5,30.10,ENE,64,0.0,0.0,100,0.01,,OVC015,0.16,VWS V14.01,2013-08-18 03:24:00,
2013-08-17 23:29:00,64.5,64.5,30.10,ENE,64,0.0,0.0,100,0.01,,OVC015,0.16,VWS V14.01,2013-08-18 03:29:00,
2013-08-17 23:34:00,64.5,64.5,30.10,ENE,64,0.0,0.0,100,0.01,,OVC015,0.16,VWS V14.01,2013-08-18 03:34:00,
2013-08-17 23:39:00,64.5,64.5,30.10,ENE,64,0.0,0.0,100,0.01,,OVC015,0.16,VWS V14.01,2013-08-18 03:39:00,
2013-08-17 23:44:00,64.5,64.5,30.10,ENE,64,0.0,0.0,100,0.03,,OVC015,0.18,VWS V14.01,2013-08-18 03:44:00,
2013-08-17 23:49:00,64.5,64.5,30.09,ENE,64,0.0,0.0,100,0.06,,-RA,0.21,VWS V14.01,2013-08-18 03:49:00,
2013-08-17 23:54:00,64.5,64.5,30.09,ENE,64,0.0,0.0,100,0.10,,-RA,0.26,VWS V14.01,2013-08-18 03:54:00,
2013-08-17 23:59:00,64.3,64.3,30.09,ENE,64,0.0,0.0,100,0.16,,-RA,0.32,VWS V14.01,2013-08-18 03:59:00,